Miscellaneous Local Product
Issued by NWS Hastings, NE

Home | Current Version | Previous Version | Text Only | Print | Product List | Glossary On
Versions: 1 2 3 4 5 6 7 8 9 10 11 12 13 14 15 16 17 18 19 20 21 22 23 24 25 26 27 28 29 30 31 32 33 34 35 36 37 38 39 40 41 42 43 44 45 46 47 48 49 50
779
AXUS43 KGID 250702
MISGRI

GID CWA HOURLY WEATHER ROUNDUP
NATIONAL WEATHER SERVICE HASTINGS NE
200 AM CDT SUN JUN 25 2017

NOTE: "FAIR" INDICATES FEW OR NO CLOUDS BELOW 12,000 FEET WITH NO
SIGNIFICANT WEATHER AND/OR OBSTRUCTIONS TO VISIBILITY.

...SOUTH CENTRAL NEBRASKA...

CITY           SKY/WX    TMP DP  RH WIND       PRES   REMARKS
GRAND ISLAND   PTCLDY    53  44  71 W6        30.28R
HASTINGS       PTCLDY    53  44  71 W5        30.29R
KEARNEY        PTCLDY    55  41  58 NW5       30.30R
ORD            PTCLDY    47  38  71 NW6       30.29R
YORK           CLEAR     52  45  76 CALM      30.26S
AURORA         PTCLDY    52  44  75 CALM      30.27S
LEXINGTON      CLEAR     49  43  81 N6        30.30S
HOLDREGE       CLEAR     53  43  70 CALM      30.29R
HEBRON         CLEAR     54  49  84 CALM      30.25S

...NEBRASKA PANHANDLE...

CITY           SKY/WX    TMP DP  RH WIND       PRES   REMARKS
CHADRON        CLOUDY    57  38  48 NW3       30.36F
ALLIANCE       CLOUDY    52  40  63 NE7       30.37R
SCOTTSBLUFF    PTCLDY    57  41  55 NE8       30.35R
SIDNEY         CLEAR     48  38  68 SE5       30.36R

...WESTERN AND NORTH CENTRAL NEBRASKA...

CITY           SKY/WX    TMP DP  RH WIND       PRES   REMARKS
VALENTINE      PTCLDY    49  32  52 NW3       30.35R
AINSWORTH      CLEAR     52  37  56 CALM      30.34R
ONEILL         PTCLDY    50  40  68 N6        30.31R
BROKEN BOW     CLOUDY    54  43  66 NE3       30.29F
IMPERIAL       CLEAR     51  44  77 CALM      30.33R
NORTH PLATTE   CLEAR     47  40  76 CALM      30.30S
MCCOOK         CLEAR     57  50  77 CALM      30.30S

...EASTERN NEBRASKA...

CITY           SKY/WX    TMP DP  RH WIND       PRES   REMARKS
NORFOLK        CLEAR     51  39  63 N7        30.27R
SO SIOUX CITY  PTCLDY    53  42  66 W6        30.25R
TEKAMAH        CLEAR     56  40  55 NW9       30.23R
COLUMBUS       PTCLDY    54  41  61 CALM      30.27R
ALBION         CLEAR     49  39  69 CALM      30.29R
OMAHA EPPLEY   PTCLDY    57  45  64 N5        30.23R
OFFUTT AFB     PTCLDY    60  42  52 N3        30.22R
MILLARD        PTCLDY    63  43  47 N3        30.23R
LINCOLN        PTCLDY    54  45  71 N6        30.26R
NEBRASKA CITY  CLEAR     61  46  57 N8        30.23R
BEATRICE       PTCLDY    56  50  82 W3        30.24S
FALLS CITY     PTCLDY    56  47  71 NW7       30.20R

...NORTHERN KANSAS...

CITY           SKY/WX    TMP DP  RH WIND       PRES   REMARKS
GOODLAND       LGT RAIN  57  52  83 VRB3      30.36R
HILL CITY      LGT RAIN  61  59  93 W3        30.30R
NORTON         SUNNY     57  43  58 CALM      30.29
PHILLIPSBURG   CLEAR     57  54  88 CALM      30.28F
SMITH CENTER   CLEAR     55  52  88 SW5       30.28S
HAYS           CLOUDY    64  51  62 E9        30.29S
RUSSELL        CLOUDY    65  50  58 NE7       30.30R
CONCORDIA      CLOUDY    62  52  69 SW7       30.26R
SALINA         HVY RAIN  65  57  75 NW10      30.32R
TOPEKA         CLOUDY    70  50  49 W3        30.22S



USA.gov is the U.S. government's official web portal to all federal, state and local government web resources and services.